TimeMDT,TemperatureF,Dew PointF,Humidity,Sea Level PressureIn,VisibilityMPH,Wind Direction,Wind SpeedMPH,Gust SpeedMPH,PrecipitationIn,Events,Conditions,WindDirDegrees,DateUTC
12:53 AM,33.1,24.1,70,30.07,10.0,South,10.4,-,N/A,,Clear,170,2012-10-28 06:53:00
1:53 AM,30.0,24.1,79,30.06,10.0,South,10.4,-,N/A,,Clear,170,2012-10-28 07:53:00
2:53 AM,30.9,24.1,76,30.04,10.0,South,10.4,-,N/A,,Clear,170,2012-10-28 08:53:00
3:53 AM,32.0,25.0,75,30.03,10.0,South,9.2,-,N/A,,Overcast,170,2012-10-28 09:53:00
4:53 AM,32.0,26.1,79,30.01,10.0,South,13.8,-,N/A,,Overcast,170,2012-10-28 10:53:00
5:53 AM,30.9,25.0,79,30.02,10.0,SSE,11.5,-,N/A,,Scattered Clouds,160,2012-10-28 11:53:00
6:53 AM,30.0,25.0,82,30.02,10.0,SSE,6.9,-,N/A,,Clear,160,2012-10-28 12:53:00
7:53 AM,32.0,27.0,82,30.03,10.0,South,12.7,-,N/A,,Clear,170,2012-10-28 13:53:00
8:53 AM,34.0,28.0,79,30.00,10.0,South,10.4,-,N/A,,Mostly Cloudy,170,2012-10-28 14:53:00
9:53 AM,39.0,28.0,65,29.98,10.0,South,16.1,-,N/A,,Overcast,190,2012-10-28 15:53:00
10:53 AM,45.0,28.9,53,29.94,10.0,SSW,12.7,-,N/A,,Overcast,200,2012-10-28 16:53:00
11:53 AM,51.1,30.9,46,29.92,10.0,SSW,9.2,-,N/A,,Overcast,210,2012-10-28 17:53:00
12:53 PM,55.0,30.0,38,29.88,10.0,SW,11.5,-,N/A,,Overcast,230,2012-10-28 18:53:00
1:53 PM,57.9,30.0,35,29.87,10.0,West,10.4,-,N/A,,Mostly Cloudy,280,2012-10-28 19:53:00
2:53 PM,60.1,30.9,33,29.86,10.0,NW,11.5,21.9,N/A,,Mostly Cloudy,310,2012-10-28 20:53:00
3:53 PM,57.9,32.0,37,29.88,10.0,North,10.4,-,N/A,,Scattered Clouds,350,2012-10-28 21:53:00
4:53 PM,55.9,32.0,40,29.91,10.0,North,5.8,-,N/A,,Overcast,10,2012-10-28 22:53:00
5:53 PM,51.1,34.0,52,29.93,10.0,Calm,Calm,-,N/A,,Overcast,0,2012-10-28 23:53:00
6:53 PM,43.0,34.0,71,29.97,10.0,South,5.8,-,N/A,,Mostly Cloudy,190,2012-10-29 00:53:00
7:53 PM,39.9,33.1,77,29.98,10.0,South,6.9,-,N/A,,Clear,170,2012-10-29 01:53:00
8:53 PM,39.0,32.0,76,29.99,10.0,South,8.1,-,N/A,,Clear,180,2012-10-29 02:53:00
9:53 PM,39.0,33.1,79,29.98,10.0,South,9.2,-,N/A,,Clear,170,2012-10-29 03:53:00
10:53 PM,41.0,33.1,73,29.96,10.0,SSE,6.9,-,N/A,,Clear,160,2012-10-29 04:53:00
11:53 PM,39.0,32.0,76,29.94,10.0,South,8.1,-,N/A,,Clear,170,2012-10-29 05:53:00